www.pogodaiklimat.ru

Погода и климат >> Архив погоды >> Россия >> Бурятия >> Кяхта


АРХИВ ПОГОДЫ в Кяхте

Время (UTC), дата Ветер
(напр.,м/с)
 
Видим.   Явления Облачность Т
(С)
Тd
(С)
f
(%)
Тe
(С)
Тes
(С)
Комфортность P
(гПа)
Po
(гПа)
Тmin
(С)
Tmax
(С)
R
(мм)
R24
(мм)
S
(см)
09 12.08 Ю 3 50 км 9/5 600 м
[Cb cap Ac cuf Ci fib]
+18.7 +7.8 49 +19 +21 1001.0 921.0
12 12.08 З 1 50 км 6/3 600 м
[Cb cap Ac cuf Ci fib]
+16.1 +8.6 61 +17 +17 1010.8 921.0 +19.3
15 12.08 штиль 0 н/о ясно +11.4 +9.3 87 +11 +11 1012.4 921.1
18 12.08 С 1 н/о ясно +9.2 +8.0 92 +8 +8 1012.2 920.2
21 12.08 С 1 н/о 6/4 1000 м
[Sc Ci fib]
+10.4 +8.8 90 +10 +10 1011.2 919.7
00 13.08 штиль 0 50 км 8/3 600 м
[Cb cap Ac trans Ci fib]
+13.7 +9.3 75 +13 +15 1009.4 919.1 +8.9
03 13.08 З 3 10 км гроза, ливневой дождь 10/8 600 м
[Cb cap Ac cuf Ci ing]
+12.9 +11.0 88 +11 +12 1010.0 919.5
06 13.08 Ю 3 20 км слаб. ливневой дождь {гроза} 10/8 600 м
[Cb cap Ac cuf Ci ing]
+13.2 +12.1 93 +12 +13 1008.4 918.1
09 13.08 Ю 1 50 км {ливн. осадки} 8/6 600 м
[Cb cap Ac cuf]
+16.3 +11.7 74 +17 +19 1007.1 917.8
12 13.08 СЗ 1 50 км {ливн. осадки} 8/4 1000 м
[Cu med, cong Ac lent Ci ing]
+13.6 +10.5 82 +14 +14 1009.0 918.7 +16.7 7
15 13.08 С 1 н/о 3/0
[Ac lent]
+10.1 +9.0 93 +10 +10 1010.4 918.9
18 13.08 СЗ 2 н/о ясно +9.1 +8.5 96 +7 +7 1011.1 919.2
21 13.08 штиль 0 н/о ясно +6.9 +6.2 95 +6 +6 1011.9 919.1
00 14.08 Ю 1 50 км туман местами 3/0
[Cc]
+10.9 +8.6 86 +11 +14 1010.3 919.0 +6.5
03 14.08 ЮВ 2 50 км 10/1 600 м
[Cb cap Ac cast Ci fib]
+13.8 +10.2 79 +13 +18 1008.8 918.6
06 14.08 Ю 2 50 км 3/1 600 м
[Cb cap Ci fib]
+19.0 +7.1 46 +20 +32 1005.8 917.3
09 14.08 В 2 50 км 10/3 600 м
[Cb cap Ac lent Ci fib]
+19.6 +7.0 44 +21 +23 комфорт 1004.4 916.2
12 14.08 СЗ 5
{11}
50 км слаб. ливневой дождь 10/10 600 м
[Cb cap]
+13.6 +10.2 80 +12 +12 1007.7 917.5 +20.3 0.0
15 14.08 СЗ 4
{11}
н/о слаб. ливневой дождь 10/10 600 м
[Cb cap]
+11.0 +9.7 92 +8 +8 1010.5 919.3
18 14.08 СЗ 5-10
{12}
н/о слаб. ливневой дождь 10/10 600 м
[Cb cap]
+10.4 +9.0 91 +7 +7 1012.0 920.5
21 14.08 СЗ 3
{10}
н/о слаб. ливневой дождь 10/10 600 м
[Cb cap]
+10.3 +9.1 92 +8 +8 1014.1 922.3
00 15.08 СЗ 4 50 км {ливн. осадки} 10/8 600 м
[Cb cap Ac lent Ci fib]
+10.9 +9.3 90 +8 +9 1015.4 923.7 +10.2 6
03 15.08 СЗ 4 50 км 8/6 600 м
[Cb cap Ci fib]
+15.6 +9.7 68 +15 +18 1013.9 923.8
06 15.08 С 3 50 км 9/8 600 м
[Cb cap Ci fib]
+17.6 +7.8 53 +18 +20 1012.8 923.3
09 15.08 С 3 50 км 8/5 600 м
[Cb cap Ci fib]
+18.6 +8.0 50 +19 +21 1011.8 922.7
12 15.08 С 1 50 км 8/3 1000 м
[Sc diur, vesp Ac trans Cc]
+15.3 +9.2 67 +16 +16 1012.9 922.7 +19.9
15 15.08 штиль 0 н/о 8/3 1000 м
[Sc diur, vesp Ac trans Ci fib]
+12.7 +9.7 82 +12 +12 1013.9 922.9
18 15.08 Ю 1 н/о 9/0
[Ac trans Ci fib]
+10.3 +8.1 86 +10 +10 1014.6 922.7
21 15.08 штиль 0 н/о 6/0
[Ac trans Ci fib]
+8.7 +7.5 92 +8 +8 1014.9 922.5
00 16.08 Ю 1 50 км 3/1 1000 м
[Sc Ac trans]
+12.6 +8.7 77 +13 +15 1014.0 922.9 +7.8
03 16.08 В 3 50 км 8/6 600 м
[Cb cap Ac cuf]
+17.5 +10.4 63 +18 +20 1011.9 922.5
06 16.08 Ю 2 50 км 8/8 600 м
[Cb cap]
+20.7 +8.6 46 +23 +25 комфорт 1009.2 920.8
09 16.08 ЮЗ 1 50 км 6/6 1000 м
[Cu med, cong]
+20.2 +8.5 47 +22 +25 комфорт 1008.2 919.9
12 16.08 С 1 50 км 1/0 2000 м
[Ac cuf]
+17.2 +10.1 63 +18 +18 1009.0 919.8 +21.8
15 16.08 С 2 н/о ясно +11.9 +9.1 83 +11 +11 1010.9 919.9
18 16.08 С 1 н/о ясно +10.3 +8.1 86 +10 +10 1010.6 919.1
21 16.08 С 1 н/о 8/0
[Ac lent Cs]
+11.0 +9.3 89 +11 +11 1010.0 918.8
00 17.08 штиль 0 50 км 10/3 600 м
[Cb cap Ac lent Cs]
+13.5 +10.1 80 +13 +14 1008.4 918.1 +9.5
03 17.08 Ю 2 50 км 10/6 600 м
[Cb cap Ac As]
+15.5 +10.4 72 +15 +17 1007.3 917.7
06 17.08 Ю 1 50 км 10/8 600 м
[Cb cap Ac As]
+15.5 +10.9 74 +16 +17 1005.8 916.4
09 17.08 ЮВ 1 50 км 8/3 600 м
[Cb cap Ac As Ci sp]
+18.3 +10.1 59 +20 +22 1004.2 915.7
12 17.08 СЗ 3 50 км 10/4 600 м
[Cb cap Ac As Cs]
+15.3 +11.9 80 +15 +15 1006.3 916.8 +18.9
15 17.08 СЗ 3 н/о 9/4 600 м
[Cb cap Ac As Cs]
+13.6 +9.4 76 +12 +12 1008.2 917.9
18 17.08 СЗ 2 н/о 8/3 600 м
[Cb cap Ac As Cs]
+12.9 +9.5 80 +12 +12 1009.9 919.3
21 17.08 С 1 н/о 8/3 600 м
[Cb cap Ac trans Ci fib]
+11.6 +9.5 87 +11 +11 1011.4 920.3
00 18.08 СЗ 1 50 км 9/8 600 м
[Cb cap Ac As]
+12.8 +8.9 77 +13 +13 1011.8 921.0 +10.6
03 18.08 С 2 50 км 8/8 600 м
[Cb cap]
+16.6 +8.5 59 +17 +19 1011.6 921.9
06 18.08 Ю 2 50 км 8/8 600 м
[Cb cap]
+18.9 +9.4 54 +20 +23 1009.8 920.9
09 18.08 ЮВ 2 50 км 8/8 600 м
[Cb cap]
+18.6 +9.6 56 +20 +21 1009.0 920.2
12 18.08 штиль 0 50 км 10/6 1000 м
[Sc diur, vesp Ci fib]
+17.1 +10.5 65 +17 +17 1009.4 920.1 +20.2
15 18.08 штиль 0 н/о 10/0
[Ci fib]
+12.0 +9.6 85 +11 +11 1011.1 920.1
18 18.08 штиль 0 н/о 10/0
[Cs]
+11.3 +9.6 89 +11 +11 1011.0 919.9
21 18.08 С 1 н/о 10/0
[Ac As Cs]
+13.0 +10.2 83 +13 +13 1009.6 919.1
00 19.08 штиль 0 10 км слаб. ливневой дождь 10/10 600 м
[Cb cap]
+12.5 +11.1 91 +12 +12 1009.1 918.5 +10.7 0.4
03 19.08 штиль 0 10 км слаб. ливневой дождь 10/10 600 м
[Cb cap]
+13.5 +11.7 89 +13 +13 1008.6 918.3
06 19.08 СЗ 3 10 км в посл. час ливневой дождь 10/8 600 м
[Cb cap Ac As]
+14.2 +11.7 85 +13 +14 1008.1 918.1

 

Местоположение метеостанции Кяхта (Бурятия, Россия): широта 50.37 долгота 106.40 высота над уровнем моря 797 м.

В архиве по умолчанию представлена погода в Кяхте за последнюю неделю. Архивные данные за месяц целиком и за предыдущие месяцы, начиная с января 2011 года, Вы можете получить, выбрав интересующий диапазон дат из раскрывающегося списка и нажав кнопку "Ввод!".


*Определитесь, кто Вы:
робот инопланетянин человек

Внимание! Время в таблицах - всемирное. Для получения местного времени необходимо прибавить поправку, которая равна 8 ч.

Смотрите также архив погоды в соседних городах и на ближайших метеорологических станциях:

Погода в Бичуре (Бурятия, Россия) (82 км)
Погода в Новоселенгинске (Бурятия, Россия) (82 км)
Погода в Петропавловке (Бурятия, Россия) (83 км)
Погода в Улыгайин Дуганг (Монголия) (112 км)
Погода в Торее (Бурятия, Россия) (113 км)
Погода в Хадатыне (Монголия) (117 км)
Погода в Мухоршибири (Бурятия, Россия) (123 км)
Погода в Бабушкине (Бурятия, Россия) (154 км)
Погода в Танхое (Бурятия, Россия) (160 км)
Погода в Баруунхараа (Монголия) (163 км)

Пояснения к столбцам:

Ветер - указаны скорость ветра в м/с - средняя за 10 мин, порывы в срок и между сроками (в фигурных скобках) и направление, откуда дует ветер: С - северный, СВ - северо-восточный, В - восточный, ЮВ - юго-восточный, Ю - южный, ЮЗ - юго-западный, З - западный, СЗ - северо-западный.
Видимость - горизонтальная дальность видимости в метрах или километрах. При видимости от 1 до 10 км при отсутствии осадков обычно наблюдается дымка, при ухудшении видимости до 1 км и менее - туман. В сухую погоду видимость может ухудшаться дымом, пылью или мглою.
Явления - указаны атмосферные явления, наблюдавшиеся в срок или в последний час перед сроком; фигурными скобками обозначены явления, наблюдавшиеся между сроками (за 1-3 часа до срока); квадратными скобками обозначены град или гололедные отложения с указанием их диаметра в мм.
Облачность - указаны через наклонную черту общая и нижняя облачность в баллах и высота нижней границы облаков в метрах; квадратными скобками обозначены формы облаков: Ci - перистые, Cs - перисто-слоистые, Cc - перисто-кучевые, Ac - высококучевые, As - высокослоистые, Sc - слоисто-кучевые, Ns - слоисто-дождевые, Cu - кучевые, Cb - кучево-дождевые. Подробнее классификацию облаков см. в Атласе облаков (PDF).
T - Температура воздуха - температура, измеренная на высоте 2 м над землей.
Td - Температура точки росы - температура, при понижении до которой содержащийся в воздухе водяной пар достигнет насыщения.
f - Относительная влажность воздуха - влажноcть воздуха, измеренная на высоте 2 м над землей.
Te - Эффективная температура - температура, которую ощущает одетый по сезону человек в тени. Характеристика душности погоды. При расчете учитывается влияние влажности воздуха и скорости ветра на теплоощущения человека.
Tes - Эффективная температура на солнце - температура, которую ощущает человек, с поправкой на солнечный нагрев. Характеристика знойности погоды. Зависит от высоты солнца над горизонтом, облачности и скорости ветра. Ночью, в пасмурную погоду, а также при ветре 12 м/с и более поправка равна нулю.
P - Атмосферное давление - приведенное к уровню моря атмосферное давление.
Po - Атмосферное давление - измеренное на уровне метеостанции атмосферное давление.
Tmin - Минимальная температура - минимум температуры воздуха на высоте 2 м над землей.
Tmax - Максимальная температура - максимум температуры воздуха на высоте 2 м над землей.
R - Количество осадков - Количество выпавших осадков за период времени, мм. При наведении курсора мыши на число - период времени, за который выпало указанное количество осадков.
R24 - Количество осадков - Количество выпавших осадков за 24 часа, мм.
S - Снежный покров - Высота снежного покрова, см. При наведении курсора мыши на число - состояние снежного покрова и степень покрытия местности в баллах.